Location: Newark
(43.6583°N, 1.6617°E)
Time: 15:54:38
(UTC+00:00)

Transit 4A - Pass Details

Date: 03 September 2019
Orbit: 865 x 980 km, 66.8° (Epoch: 15 September)

Event Time Altitude Azimuth Distance (km) Brightness Sun altitude
Rises 01:02:04 0° 323° (NW) 3,612 11.3 -36.3°
Reaches altitude 10° 01:04:46 10° 316° (NW) 2,646 10.5 -36.1°
Enters shadow 01:05:57 16° 312° (NW) 2,244 10.0 -36.0°
Maximum altitude 01:10:28 42° 248° (WSW) 1,287 - -35.7°
Drops below altitude 10° 01:15:59 10° 180° (S) 2,555 - -35.3°
Sets 01:18:33 0° 173° (S) 3,475 - -35.1°
